STARLINK-5863, 55922

Orbit data source: Space-Track

STARLINK-5863, 55922 is a payload satellite owned by SpaceX/Seattle (US) in LEO that was launched on Fri, 17 Mar 2023 UTC via an FALCON 9 launch vehicle from the Air Force Western Test Range (AFWTR). Payload-class satellites include a variety of spacecraft equipped with specific instruments for various scientific and technological missions. These include communications satellites like Starlink; space stations such as the ISS; scientific satellites like the Hubble; Earth observation satellites from companies like Planet Labs, Umbra, and HawkEye 360; GPS; miniature CubeSats for education and research; and military/defense satellites.

Loading next visibility...
Identifier
55922, 2023-037J
Orbit
LEO
Country
Flag of USUS
Related business
Manufacturer
SpaceX/Seattle
Mission
Operational Commercial Communications
Bus & Motor
STARLINK, Unknown motor
Mass
305 kg wet, ~290 kg dry
Launch date (UTC)
2023-03-17 (3 years ago)
Launch vehicle
FALCON 9
Launch site
Air Force Western Test Range (AFWTR)
Object type
Payload
Rocket body
Debris
Shape & HBR
Box + 1 Pan, 10.1 m
Radar Cross Section
11.087 m², Large (>1 m²)

Expand to show TLE details & history
Last TLE update: 18 hours ago

TLE from 18 hours ago
0 STARLINK-5863
1 55922U 23037J   25348.87676516  .00001008  00000-0  92327-4 0  9992
2 55922  69.9988 158.2728 0002565 266.0457  94.0409 14.98314460150782
Epoch: 2025-12-14T21:02Z
TLE epoch observation values (Epoch: 2025-12-14T21:02:32.509Z)
Latitude
-0.00003°
Longitude
118.85395°
Altitude
574.654 km
Speed
7.574 km/s
True Right ascension
10h 33m 05s
True Declination
0° 00' 00"
Sunlit
Object was in daylight at epoch
Visualization orbit readout
Latitude
Unknown
Longitude
Unknown
Altitude
Unknown
Speed
Unknown
Apparent Right ascension
Unknown
Apparent Declination
Unknown
Sunlit
N/A
Visualization observer readout
Local Sidereal Time
13:18:50
Azimuth
Unknown
Elevation
Unknown
Doppler factor
Unknown
Orbital elements
Apogee altitude
571.835 km
Perigee altitude
568.27 km
Semi-major axis
6,948.189 km
Eccentricity
0.00026
Inclination
69.9988°
RAAN
158.2728°
Arg. of periapsis
266.0457°
True anomaly
94.07022°
Mean anomaly
94.0409°
Eccentric anomaly
94.05556°
Mean motion
3.74745 °/min
Orbital period
96.07 mins
BSTAR
0.000092327
Loading maneuver chart data...
Computing Atmospheric mass density...
Loading historical data...
Loading historical data...
Loading historical data...
Loading historical data...
Loading historical data...
Loading historical data...
Loading historical data...

Documentation

Showing up to 5 results
|